Home   Weather   Emsdetten   Past weeks

Flag for Germany Past Weather in Emsdetten, North Rhine-Westphalia, Germany — Yesterday and Last 2 Weeks

Now
36 °F

Sunny.


Feels Like: 36 °F
Forecast: 19 / 33 °F
Wind: 2 mph from North

Location: Muenster / Osnabrueck

Current Time: Dec 5, 2016 at 11:42:15 am

Latest Report: Dec 5, 2016 at 11:20 am


Visibility: 10 mi

Pressure: 30.33 "Hg

Humidity: 52%

Dew Point: 19 °F

Location of EmsdettenLocation

Past Weather in Emsdetten — Graph

°F

Emsdetten Temperature Yesterday

Maximum temperature yesterday: 41 °F (at 1:50 pm)
Minimum temperature yesterday: 21 °F (at 4:20 am)
Average temperature yesterday: 29 °F

High & Low Weather Summary for the Past Weeks

 TemperatureHumidityPressure
High57 °F (Nov 20, 2:50 pm)100% (Nov 23, 4:50 am)30.60 "Hg (Nov 23, 4:50 am)
Low18 °F (Nov 29, 7:20 am)45% (Dec 4, 2:50 pm)29.27 "Hg (Nov 20, 12:50 pm)
Average38 °F86%30.16 "Hg
* Reported Nov 20 10:20 am — Dec 5 10:20 am, Emsdetten, Weather by CustomWeather, © 2016

Note: Actual official high and low records may vary slightly from our data, if they occured in-between our weather recording intervals... More about our weather records

Advertising

Emsdetten Weather History for the Previous 24 Hours

Scroll right to see more
 ConditionsComfort  
Time TempWeatherWind HumidityBarometerVisibility
10:20 am
Mon, Dec 5
28 °FSunny.No wind69%30.33 "Hg10 mi
9:50 am25 °FSunny.No wind74%30.33 "Hg10 mi
9:20 am23 °FSunny.No wind74%30.33 "Hg10 mi
8:50 am19 °FSunny.1 mph86%30.30 "Hg10 mi
8:20 am19 °FClear.No wind86%30.30 "Hg10 mi
7:50 am21 °FClear.No wind86%30.30 "Hg10 mi
7:20 am23 °FClear.2 mph80%30.30 "Hg10 mi
6:50 am19 °FClear.1 mph86%30.30 "Hg10 mi
6:20 am23 °FClear.No wind80%30.30 "Hg10 mi
5:50 am21 °FClear.2 mph80%30.30 "Hg10 mi
5:20 am23 °FClear.1 mph74%30.30 "Hg10 mi
4:50 am23 °FClear.1 mph74%30.33 "Hg10 mi
4:20 am27 °FClear.2 mph64%30.33 "Hg10 mi
3:50 am25 °FClear.2 mph69%30.33 "Hg10 mi
3:20 am27 °FClear.2 mph64%30.33 "Hg10 mi
2:50 am25 °FClear.1 mph69%30.33 "Hg10 mi
2:20 am25 °FClear.2 mph74%30.33 "Hg10 mi
1:50 am25 °FClear.2 mph74%30.33 "Hg10 mi
1:20 am25 °FClear.1 mph74%30.33 "Hg10 mi
12:50 am25 °FClear.2 mph74%30.33 "Hg10 mi
12:20 am23 °FClear.2 mph86%30.36 "Hg10 mi
11:50 pm
Sun, Dec 4
25 °FClear.1 mph80%30.36 "Hg10 mi
11:20 pm27 °FClear.1 mph74%30.36 "Hg10 mi
10:50 pm28 °FClear.3 mph69%30.36 "Hg10 mi
10:20 pm28 °FClear.2 mph69%30.36 "Hg10 mi
9:50 pm30 °FClear.2 mph64%30.36 "Hg10 mi
9:20 pm32 °FPassing clouds.5 mph60%30.36 "HgN/A
8:50 pm32 °FClear.2 mph60%30.36 "Hg10 mi
8:20 pm32 °FPassing clouds.3 mph60%30.36 "HgN/A
7:50 pm28 °FPassing clouds.3 mph74%30.36 "HgN/A
7:20 pm28 °FClear.2 mph80%30.36 "Hg10 mi
6:50 pm28 °FPassing clouds.3 mph80%30.36 "HgN/A
6:20 pm30 °FPassing clouds.5 mph80%30.36 "HgN/A
5:50 pm28 °FClear.2 mph80%30.36 "Hg10 mi
5:20 pm30 °FClear.3 mph75%30.36 "Hg10 mi
4:50 pm32 °FPassing clouds.3 mph69%30.36 "HgN/A
4:20 pm36 °FClear.2 mph60%30.36 "Hg10 mi
3:50 pm39 °FSunny.2 mph48%30.36 "Hg10 mi
3:20 pm41 °FSunny.2 mph53%30.36 "Hg10 mi
2:50 pm41 °FSunny.2 mph45%30.36 "Hg10 mi
2:20 pm41 °FPassing clouds.3 mph49%30.36 "HgN/A
1:50 pm41 °FPassing clouds.3 mph57%30.36 "HgN/A
1:20 pm39 °FSunny.2 mph70%30.36 "Hg10 mi
12:50 pm37 °FSunny.2 mph75%30.36 "Hg10 mi
12:20 pm37 °FSunny.2 mph81%30.39 "Hg10 mi
11:50 am34 °FSunny.2 mph87%30.39 "Hg10 mi
11:20 am34 °FSunny.No wind93%30.39 "Hg10 mi
Weather by CustomWeather, © 2016

See weather overviewHow to use our weather pages